owner,sensor,date,latitude,longitude,vertical_datum,mass_concentration_of_oxygen_in_sea_water,qcFlag 
SCCF RECON,ioos:station:SCCF:13:1,2019-03-12T20:00:00Z,26.5255,-82.0032,2.423,7.24,1111122 
SCCF RECON,ioos:station:SCCF:13:1,2019-03-12T21:00:00Z,26.5255,-82.0032,2.469,7.82,1111122 
SCCF RECON,ioos:station:SCCF:13:1,2019-03-12T22:00:00Z,26.5255,-82.0032,2.49,8.12,1111122 
SCCF RECON,ioos:station:SCCF:13:1,2019-03-12T23:00:00Z,26.5255,-82.0032,2.48,7.94,1111122 
SCCF RECON,ioos:station:SCCF:13:1,2019-03-13T04:00:00Z,26.5255,-82.0032,2.06,7.49,1111122 
SCCF RECON,ioos:station:SCCF:13:1,2019-03-13T05:00:00Z,26.5255,-82.0032,2.004,7.39,1111122 
SCCF RECON,ioos:station:SCCF:13:1,2019-03-13T06:00:00Z,26.5255,-82.0032,2.01,7.27,1111122 
SCCF RECON,ioos:station:SCCF:13:1,2019-03-13T07:00:00Z,26.5255,-82.0032,2.08,7.17,1111122 
SCCF RECON,ioos:station:SCCF:13:1,2019-03-13T08:00:00Z,26.5255,-82.0032,2.16,7.05,1111122 
SCCF RECON,ioos:station:SCCF:13:1,2019-03-13T09:00:00Z,26.5255,-82.0032,2.209,6.48,1111122 
SCCF RECON,ioos:station:SCCF:13:1,2019-03-13T10:00:00Z,26.5255,-82.0032,2.246,6.87,1111122 
SCCF RECON,ioos:station:SCCF:13:1,2019-03-13T11:00:00Z,26.5255,-82.0032,2.27,6.88,1111122 
SCCF RECON,ioos:station:SCCF:13:1,2019-03-13T12:00:00Z,26.5255,-82.0032,2.29,6.63,1111122 
SCCF RECON,ioos:station:SCCF:13:1,2019-03-13T13:00:00Z,26.5255,-82.0032,2.3,6.53,1111122 
SCCF RECON,ioos:station:SCCF:13:1,2019-03-13T14:00:00Z,26.5255,-82.0032,2.294,6.52,1111122 
SCCF RECON,ioos:station:SCCF:13:1,2019-03-13T15:00:00Z,26.5255,-82.0032,2.3,6.47,1111122 
SCCF RECON,ioos:station:SCCF:13:1,2019-03-13T16:00:00Z,26.5255,-82.0032,2.299,6.67,1111122 
SCCF RECON,ioos:station:SCCF:13:1,2019-03-13T17:00:00Z,26.5255,-82.0032,2.29,6.9,1111122 
SCCF RECON,ioos:station:SCCF:13:1,2019-03-13T18:00:00Z,26.5255,-82.0032,2.329,7.39,1111122 
SCCF RECON,ioos:station:SCCF:13:1,2019-03-13T19:00:00Z,26.5255,-82.0032,2.405,7.75,1111122 
SCCF RECON,ioos:station:SCCF:13:1,2019-03-13T20:00:00Z,26.5255,-82.0032,2.481,7.75,1111122 
SCCF RECON,ioos:station:SCCF:13:1,2019-03-13T21:00:00Z,26.5255,-82.0032,2.53,7.52,1111122 
SCCF RECON,ioos:station:SCCF:13:1,2019-03-13T22:00:00Z,26.5255,-82.0032,2.56,7.96,1111122 
SCCF RECON,ioos:station:SCCF:13:1,2019-03-13T23:00:00Z,26.5255,-82.0032,2.579,7.8,1111122 
SCCF RECON,ioos:station:SCCF:13:1,2019-03-14T04:00:00Z,26.5255,-82.0032,2.207,7.41,1111122 
SCCF RECON,ioos:station:SCCF:13:1,2019-03-14T05:00:00Z,26.5255,-82.0032,2.11,7.38,1111122 
SCCF RECON,ioos:station:SCCF:13:1,2019-03-14T06:00:00Z,26.5255,-82.0032,2.05,7.26,1111122 
SCCF RECON,ioos:station:SCCF:13:1,2019-03-14T07:00:00Z,26.5255,-82.0032,2.032,7.13,1111122 
SCCF RECON,ioos:station:SCCF:13:1,2019-03-14T08:00:00Z,26.5255,-82.0032,2.081,7.11,1111122 
SCCF RECON,ioos:station:SCCF:13:1,2019-03-14T09:00:00Z,26.5255,-82.0032,2.13,7.09,1111122 
SCCF RECON,ioos:station:SCCF:13:1,2019-03-14T10:00:00Z,26.5255,-82.0032,2.21,6.92,1111122 
SCCF RECON,ioos:station:SCCF:13:1,2019-03-14T11:00:00Z,26.5255,-82.0032,2.259,6.75,1111122 
SCCF RECON,ioos:station:SCCF:13:1,2019-03-14T12:00:00Z,26.5255,-82.0032,2.31,6.7,1111122 
SCCF RECON,ioos:station:SCCF:13:1,2019-03-14T13:00:00Z,26.5255,-82.0032,2.37,6.59,1111122 
SCCF RECON,ioos:station:SCCF:13:1,2019-03-14T14:00:00Z,26.5255,-82.0032,2.394,6.52,1111122 
SCCF RECON,ioos:station:SCCF:13:1,2019-03-14T15:00:00Z,26.5255,-82.0032,2.372,6.99,1111122 
SCCF RECON,ioos:station:SCCF:13:1,2019-03-14T16:00:00Z,26.5255,-82.0032,2.371,7.26,1111122 
SCCF RECON,ioos:station:SCCF:13:1,2019-03-14T17:00:00Z,26.5255,-82.0032,2.35,6.77,1111122 
SCCF RECON,ioos:station:SCCF:13:1,2019-03-14T18:00:00Z,26.5255,-82.0032,2.365,7.69,1111122 
SCCF RECON,ioos:station:SCCF:13:1,2019-03-14T19:00:00Z,26.5255,-82.0032,2.431,7.25,1111122 
SCCF RECON,ioos:station:SCCF:13:1,2019-03-14T20:00:00Z,26.5255,-82.0032,2.486,7.65,1111122 
SCCF RECON,ioos:station:SCCF:13:1,2019-03-14T21:00:00Z,26.5255,-82.0032,2.54,7.71,1111122 
SCCF RECON,ioos:station:SCCF:13:1,2019-03-14T22:00:00Z,26.5255,-82.0032,2.58,7.58,1111122 
SCCF RECON,ioos:station:SCCF:13:1,2019-03-14T23:00:00Z,26.5255,-82.0032,2.594,7.11,1111122 
SCCF RECON,ioos:station:SCCF:13:1,2019-03-15T04:00:00Z,26.5255,-82.0032,2.351,7.33,1111122 
SCCF RECON,ioos:station:SCCF:13:1,2019-03-15T05:00:00Z,26.5255,-82.0032,2.27,7.53,1111122 
SCCF RECON,ioos:station:SCCF:13:1,2019-03-15T06:00:00Z,26.5255,-82.0032,2.17,7.45,1111122 
SCCF RECON,ioos:station:SCCF:13:1,2019-03-15T07:00:00Z,26.5255,-82.0032,2.097,7.27,1111122 
SCCF RECON,ioos:station:SCCF:13:1,2019-03-15T08:00:00Z,26.5255,-82.0032,2.07,7.15,1111122 
SCCF RECON,ioos:station:SCCF:13:1,2019-03-15T09:00:00Z,26.5255,-82.0032,2.118,7.05,1111122 
SCCF RECON,ioos:station:SCCF:13:1,2019-03-15T10:00:00Z,26.5255,-82.0032,2.19,6.98,1111122 
SCCF RECON,ioos:station:SCCF:13:1,2019-03-15T11:00:00Z,26.5255,-82.0032,2.253,6.87,1111122 
SCCF RECON,ioos:station:SCCF:13:1,2019-03-15T12:00:00Z,26.5255,-82.0032,2.318,6.6,1111122 
SCCF RECON,ioos:station:SCCF:13:1,2019-03-15T13:00:00Z,26.5255,-82.0032,2.38,6.69,1111122 
SCCF RECON,ioos:station:SCCF:13:1,2019-03-15T14:00:00Z,26.5255,-82.0032,2.427,6.68,1111122 
SCCF RECON,ioos:station:SCCF:13:1,2019-03-15T15:00:00Z,26.5255,-82.0032,2.46,6.85,1111122 
SCCF RECON,ioos:station:SCCF:13:1,2019-03-15T16:00:00Z,26.5255,-82.0032,2.471,7.04,1111122 
SCCF RECON,ioos:station:SCCF:13:1,2019-03-15T17:00:00Z,26.5255,-82.0032,2.466,6.98,1111122 
SCCF RECON,ioos:station:SCCF:13:1,2019-03-15T18:00:00Z,26.5255,-82.0032,2.438,6.92,1111122 
SCCF RECON,ioos:station:SCCF:13:1,2019-03-15T19:00:00Z,26.5255,-82.0032,2.41,6.73,1111122 
SCCF RECON,ioos:station:SCCF:13:1,2019-03-15T20:00:00Z,26.5255,-82.0032,2.409,7.05,1111122 
SCCF RECON,ioos:station:SCCF:13:1,2019-03-15T21:00:00Z,26.5255,-82.0032,2.45,7.25,1111122 
SCCF RECON,ioos:station:SCCF:13:1,2019-03-15T22:00:00Z,26.5255,-82.0032,2.51,6.94,1111122 
SCCF RECON,ioos:station:SCCF:13:1,2019-03-15T23:00:00Z,26.5255,-82.0032,2.551,6.74,1111122 
SCCF RECON,ioos:station:SCCF:13:1,2019-03-16T04:00:00Z,26.5255,-82.0032,2.416,6.55,1111122 
SCCF RECON,ioos:station:SCCF:13:1,2019-03-16T05:00:00Z,26.5255,-82.0032,2.323,6.65,1111122 
SCCF RECON,ioos:station:SCCF:13:1,2019-03-16T06:00:00Z,26.5255,-82.0032,2.241,6.84,1111122 
SCCF RECON,ioos:station:SCCF:13:1,2019-03-16T07:00:00Z,26.5255,-82.0032,2.157,6.89,1111122 
SCCF RECON,ioos:station:SCCF:13:1,2019-03-16T08:00:00Z,26.5255,-82.0032,2.071,6.81,1111122 
SCCF RECON,ioos:station:SCCF:13:1,2019-03-16T09:00:00Z,26.5255,-82.0032,2.03,6.64,1111122 
SCCF RECON,ioos:station:SCCF:13:1,2019-03-16T10:00:00Z,26.5255,-82.0032,2.05,6.47,1111122 
SCCF RECON,ioos:station:SCCF:13:1,2019-03-16T11:00:00Z,26.5255,-82.0032,2.143,6.39,1111122 
SCCF RECON,ioos:station:SCCF:13:1,2019-03-16T12:00:00Z,26.5255,-82.0032,2.224,6.29,1111122 
SCCF RECON,ioos:station:SCCF:13:1,2019-03-16T13:00:00Z,26.5255,-82.0032,2.29,6.12,1111122 
SCCF RECON,ioos:station:SCCF:13:1,2019-03-16T14:00:00Z,26.5255,-82.0032,2.36,6.37,1111122 
SCCF RECON,ioos:station:SCCF:13:1,2019-03-16T15:00:00Z,26.5255,-82.0032,2.43,6.29,1111122 
SCCF RECON,ioos:station:SCCF:13:1,2019-03-16T16:00:00Z,26.5255,-82.0032,2.461,6.45,1111122 
SCCF RECON,ioos:station:SCCF:13:1,2019-03-16T17:00:00Z,26.5255,-82.0032,2.466,6.77,1111122 
SCCF RECON,ioos:station:SCCF:13:1,2019-03-16T18:00:00Z,26.5255,-82.0032,2.439,7.21,1111122 
SCCF RECON,ioos:station:SCCF:13:1,2019-03-16T19:00:00Z,26.5255,-82.0032,2.398,7.04,1111122 
SCCF RECON,ioos:station:SCCF:13:1,2019-03-16T20:00:00Z,26.5255,-82.0032,2.381,6.78,1111122 
SCCF RECON,ioos:station:SCCF:13:1,2019-03-16T21:00:00Z,26.5255,-82.0032,2.37,7.19,1111122 
SCCF RECON,ioos:station:SCCF:13:1,2019-03-16T22:00:00Z,26.5255,-82.0032,2.39,7.13,1111122 
SCCF RECON,ioos:station:SCCF:13:1,2019-03-16T23:00:00Z,26.5255,-82.0032,2.46,7.12,1111122 
SCCF RECON,ioos:station:SCCF:13:1,2019-03-17T04:00:00Z,26.5255,-82.0032,2.53,6.58,1111122 
SCCF RECON,ioos:station:SCCF:13:1,2019-03-17T05:00:00Z,26.5255,-82.0032,2.44,6.56,1111122 
SCCF RECON,ioos:station:SCCF:13:1,2019-03-17T06:00:00Z,26.5255,-82.0032,2.331,6.68,1111122 
SCCF RECON,ioos:station:SCCF:13:1,2019-03-17T07:00:00Z,26.5255,-82.0032,2.24,6.66,1111122 
SCCF RECON,ioos:station:SCCF:13:1,2019-03-17T08:00:00Z,26.5255,-82.0032,2.14,6.69,1111122 
SCCF RECON,ioos:station:SCCF:13:1,2019-03-17T09:00:00Z,26.5255,-82.0032,2.05,6.66,1111122 
SCCF RECON,ioos:station:SCCF:13:1,2019-03-17T10:00:00Z,26.5255,-82.0032,1.992,6.44,1111122 
SCCF RECON,ioos:station:SCCF:13:1,2019-03-17T11:00:00Z,26.5255,-82.0032,2.019,6.35,1111122 
SCCF RECON,ioos:station:SCCF:13:1,2019-03-17T12:00:00Z,26.5255,-82.0032,2.13,6.3,1111122 
SCCF RECON,ioos:station:SCCF:13:1,2019-03-17T13:00:00Z,26.5255,-82.0032,2.24,6.28,1111122 
SCCF RECON,ioos:station:SCCF:13:1,2019-03-17T14:00:00Z,26.5255,-82.0032,2.29,5.88,1111122 
SCCF RECON,ioos:station:SCCF:13:1,2019-03-17T15:00:00Z,26.5255,-82.0032,2.36,6.47,1111122 
SCCF RECON,ioos:station:SCCF:13:1,2019-03-17T16:00:00Z,26.5255,-82.0032,2.43,6.36,1111122 
SCCF RECON,ioos:station:SCCF:13:1,2019-03-17T17:00:00Z,26.5255,-82.0032,2.459,6.56,1111122 
SCCF RECON,ioos:station:SCCF:13:1,2019-03-17T18:00:00Z,26.5255,-82.0032,2.42,6.93,1111122 
SCCF RECON,ioos:station:SCCF:13:1,2019-03-17T19:00:00Z,26.5255,-82.0032,2.366,7.51,1111122 
SCCF RECON,ioos:station:SCCF:13:1,2019-03-17T20:00:00Z,26.5255,-82.0032,2.291,7.07,1111122 
SCCF RECON,ioos:station:SCCF:13:1,2019-03-17T21:00:00Z,26.5255,-82.0032,2.242,7.35,1111122 
SCCF RECON,ioos:station:SCCF:13:1,2019-03-17T22:00:00Z,26.5255,-82.0032,2.25,7.16,1111122 
SCCF RECON,ioos:station:SCCF:13:1,2019-03-17T23:00:00Z,26.5255,-82.0032,2.33,7.1,1111122 
SCCF RECON,ioos:station:SCCF:13:1,2019-03-18T04:00:00Z,26.5255,-82.0032,2.579,6.8,1111122 
SCCF RECON,ioos:station:SCCF:13:1,2019-03-18T05:00:00Z,26.5255,-82.0032,2.5,6.84,1111122 
SCCF RECON,ioos:station:SCCF:13:1,2019-03-18T06:00:00Z,26.5255,-82.0032,2.384,6.62,1111122 
SCCF RECON,ioos:station:SCCF:13:1,2019-03-18T07:00:00Z,26.5255,-82.0032,2.28,6.75,1111122 
SCCF RECON,ioos:station:SCCF:13:1,2019-03-18T08:00:00Z,26.5255,-82.0032,2.17,6.72,1111122 
SCCF RECON,ioos:station:SCCF:13:1,2019-03-18T09:00:00Z,26.5255,-82.0032,2.079,6.81,1111122 
SCCF RECON,ioos:station:SCCF:13:1,2019-03-18T10:00:00Z,26.5255,-82.0032,1.99,6.68,1111122 
SCCF RECON,ioos:station:SCCF:13:1,2019-03-18T11:00:00Z,26.5255,-82.0032,1.93,6.57,1111122 
SCCF RECON,ioos:station:SCCF:13:1,2019-03-18T12:00:00Z,26.5255,-82.0032,1.95,6.51,1111122 
SCCF RECON,ioos:station:SCCF:13:1,2019-03-18T13:00:00Z,26.5255,-82.0032,2.09,6.53,1111122 
SCCF RECON,ioos:station:SCCF:13:1,2019-03-18T14:00:00Z,26.5255,-82.0032,2.22,6.38,1111122 
SCCF RECON,ioos:station:SCCF:13:1,2019-03-18T15:00:00Z,26.5255,-82.0032,2.3,6.46,1111122 
SCCF RECON,ioos:station:SCCF:13:1,2019-03-18T16:00:00Z,26.5255,-82.0032,2.353,6.57,1111122 
SCCF RECON,ioos:station:SCCF:13:1,2019-03-18T17:00:00Z,26.5255,-82.0032,2.41,6.44,1111122 
SCCF RECON,ioos:station:SCCF:13:1,2019-03-18T18:00:00Z,26.5255,-82.0032,2.418,6.81,1111122 
SCCF RECON,ioos:station:SCCF:13:1,2019-03-18T19:00:00Z,26.5255,-82.0032,2.31,6.97,1111122 
SCCF RECON,ioos:station:SCCF:13:1,2019-03-18T20:00:00Z,26.5255,-82.0032,2.232,6.82,1111122 
SCCF RECON,ioos:station:SCCF:13:1,2019-03-18T21:00:00Z,26.5255,-82.0032,2.168,6.84,1111122 
SCCF RECON,ioos:station:SCCF:13:1,2019-03-18T22:00:00Z,26.5255,-82.0032,2.12,7.11,1111122 
SCCF RECON,ioos:station:SCCF:13:1,2019-03-18T23:00:00Z,26.5255,-82.0032,2.125,7.37,1111122 
SCCF RECON,ioos:station:SCCF:13:1,2019-03-19T04:00:00Z,26.5255,-82.0032,2.45,6.83,1111122 
SCCF RECON,ioos:station:SCCF:13:1,2019-03-19T05:00:00Z,26.5255,-82.0032,2.429,6.82,1111122 
SCCF RECON,ioos:station:SCCF:13:1,2019-03-19T06:00:00Z,26.5255,-82.0032,2.34,6.73,1111122 
SCCF RECON,ioos:station:SCCF:13:1,2019-03-19T07:00:00Z,26.5255,-82.0032,2.23,6.67,1111122 
SCCF RECON,ioos:station:SCCF:13:1,2019-03-19T08:00:00Z,26.5255,-82.0032,2.102,6.99,1111122 
SCCF RECON,ioos:station:SCCF:13:1,2019-03-19T09:00:00Z,26.5255,-82.0032,2.0,7.04,1111122 
SCCF RECON,ioos:station:SCCF:13:1,2019-03-19T10:00:00Z,26.5255,-82.0032,1.905,7.07,1111122 
SCCF RECON,ioos:station:SCCF:13:1,2019-03-19T11:00:00Z,26.5255,-82.0032,1.82,7.13,1111122 
SCCF RECON,ioos:station:SCCF:13:1,2019-03-19T12:00:00Z,26.5255,-82.0032,1.78,7.04,1111122 
SCCF RECON,ioos:station:SCCF:13:1,2019-03-19T13:00:00Z,26.5255,-82.0032,1.85,7.08,1111122 
SCCF RECON,ioos:station:SCCF:13:1,2019-03-19T14:00:00Z,26.5255,-82.0032,2.01,7.13,1111122 
SCCF RECON,ioos:station:SCCF:13:1,2019-03-19T15:00:00Z,26.5255,-82.0032,2.109,7.17,1111122 
SCCF RECON,ioos:station:SCCF:13:1,2019-03-19T16:00:00Z,26.5255,-82.0032,2.16,7.12,1111122 
SCCF RECON,ioos:station:SCCF:13:1,2019-03-19T17:00:00Z,26.5255,-82.0032,2.21,6.98,1111122 
SCCF RECON,ioos:station:SCCF:13:1,2019-03-19T18:00:00Z,26.5255,-82.0032,2.26,6.97,1111122 
SCCF RECON,ioos:station:SCCF:13:1,2019-03-19T19:00:00Z,26.5255,-82.0032,2.262,6.88,1111122 
SCCF RECON,ioos:station:SCCF:13:1,2019-03-19T20:00:00Z,26.5255,-82.0032,2.186,6.89,1111122 
SCCF RECON,ioos:station:SCCF:13:1,2019-03-19T21:00:00Z,26.5255,-82.0032,2.08,6.85,1111122 
SCCF RECON,ioos:station:SCCF:13:1,2019-03-19T22:00:00Z,26.5255,-82.0032,2.0,7.14,1111122 
SCCF RECON,ioos:station:SCCF:13:1,2019-03-19T23:00:00Z,26.5255,-82.0032,1.96,7.49,1111122 
SCCF RECON,ioos:station:SCCF:13:1,2019-03-20T04:00:00Z,26.5255,-82.0032,2.41,6.88,1111122 
SCCF RECON,ioos:station:SCCF:13:1,2019-03-20T05:00:00Z,26.5255,-82.0032,2.48,6.77,1111122 
SCCF RECON,ioos:station:SCCF:13:1,2019-03-20T06:00:00Z,26.5255,-82.0032,2.496,6.78,1111122 
SCCF RECON,ioos:station:SCCF:13:1,2019-03-20T07:00:00Z,26.5255,-82.0032,2.429,6.71,1111122 
SCCF RECON,ioos:station:SCCF:13:1,2019-03-20T08:00:00Z,26.5255,-82.0032,2.3,6.7,1111122 
SCCF RECON,ioos:station:SCCF:13:1,2019-03-20T09:00:00Z,26.5255,-82.0032,2.185,6.64,1111122 
SCCF RECON,ioos:station:SCCF:13:1,2019-03-20T10:00:00Z,26.5255,-82.0032,2.1,6.92,1111122 
SCCF RECON,ioos:station:SCCF:13:1,2019-03-20T11:00:00Z,26.5255,-82.0032,2.02,7.18,1111122 
SCCF RECON,ioos:station:SCCF:13:1,2019-03-20T12:00:00Z,26.5255,-82.0032,1.95,7.11,1111122 
SCCF RECON,ioos:station:SCCF:13:1,2019-03-20T13:00:00Z,26.5255,-82.0032,1.94,7.35,1111122 
SCCF RECON,ioos:station:SCCF:13:1,2019-03-20T14:00:00Z,26.5255,-82.0032,2.07,7.39,1111122 
SCCF RECON,ioos:station:SCCF:13:1,2019-03-20T15:00:00Z,26.5255,-82.0032,2.21,7.37,1111122 
SCCF RECON,ioos:station:SCCF:13:1,2019-03-20T16:00:00Z,26.5255,-82.0032,2.3,7.2,1111122 
SCCF RECON,ioos:station:SCCF:13:1,2019-03-20T17:00:00Z,26.5255,-82.0032,2.387,6.75,1111122 
SCCF RECON,ioos:station:SCCF:13:1,2019-03-20T18:00:00Z,26.5255,-82.0032,2.44,7.46,1111122 
SCCF RECON,ioos:station:SCCF:13:1,2019-03-20T19:00:00Z,26.5255,-82.0032,2.44,7.52,1111122 
SCCF RECON,ioos:station:SCCF:13:1,2019-03-20T20:00:00Z,26.5255,-82.0032,2.34,7.67,1111122 
SCCF RECON,ioos:station:SCCF:13:1,2019-03-20T21:00:00Z,26.5255,-82.0032,2.23,7.44,1111122 
SCCF RECON,ioos:station:SCCF:13:1,2019-03-20T22:00:00Z,26.5255,-82.0032,2.16,7.52,1111122 
SCCF RECON,ioos:station:SCCF:13:1,2019-03-20T23:00:00Z,26.5255,-82.0032,2.08,7.87,1111122 
SCCF RECON,ioos:station:SCCF:13:1,2019-03-21T04:00:00Z,26.5255,-82.0032,2.42,7.42,1111122 
SCCF RECON,ioos:station:SCCF:13:1,2019-03-21T05:00:00Z,26.5255,-82.0032,2.495,7.32,1111122 
SCCF RECON,ioos:station:SCCF:13:1,2019-03-21T06:00:00Z,26.5255,-82.0032,2.55,7.22,1111122 
SCCF RECON,ioos:station:SCCF:13:1,2019-03-21T07:00:00Z,26.5255,-82.0032,2.56,7.2,1111122 
SCCF RECON,ioos:station:SCCF:13:1,2019-03-21T08:00:00Z,26.5255,-82.0032,2.46,7.13,1111122 
SCCF RECON,ioos:station:SCCF:13:1,2019-03-21T09:00:00Z,26.5255,-82.0032,2.341,7.12,1111122 
SCCF RECON,ioos:station:SCCF:13:1,2019-03-21T10:00:00Z,26.5255,-82.0032,2.24,7.0,1111122 
SCCF RECON,ioos:station:SCCF:13:1,2019-03-21T11:00:00Z,26.5255,-82.0032,2.16,7.24,1111122 
SCCF RECON,ioos:station:SCCF:13:1,2019-03-21T12:00:00Z,26.5255,-82.0032,2.095,7.23,1111122 
SCCF RECON,ioos:station:SCCF:13:1,2019-03-21T13:00:00Z,26.5255,-82.0032,2.05,7.32,1111122 
SCCF RECON,ioos:station:SCCF:13:1,2019-03-21T14:00:00Z,26.5255,-82.0032,2.107,7.47,1111122 
SCCF RECON,ioos:station:SCCF:13:1,2019-03-21T15:00:00Z,26.5255,-82.0032,2.291,7.44,1111122 
SCCF RECON,ioos:station:SCCF:13:1,2019-03-21T16:00:00Z,26.5255,-82.0032,2.405,7.49,1111122 
SCCF RECON,ioos:station:SCCF:13:1,2019-03-21T17:00:00Z,26.5255,-82.0032,2.479,7.35,1111122 
SCCF RECON,ioos:station:SCCF:13:1,2019-03-21T18:00:00Z,26.5255,-82.0032,2.522,7.7,1111122 
SCCF RECON,ioos:station:SCCF:13:1,2019-03-21T19:00:00Z,26.5255,-82.0032,2.538,7.75,1111122 
SCCF RECON,ioos:station:SCCF:13:1,2019-03-21T20:00:00Z,26.5255,-82.0032,2.472,7.86,1111122 
SCCF RECON,ioos:station:SCCF:13:1,2019-03-21T21:00:00Z,26.5255,-82.0032,2.348,7.73,1111122 
SCCF RECON,ioos:station:SCCF:13:1,2019-03-21T22:00:00Z,26.5255,-82.0032,2.248,7.82,1111122 
SCCF RECON,ioos:station:SCCF:13:1,2019-03-21T23:00:00Z,26.5255,-82.0032,2.178,7.87,1111122 
SCCF RECON,ioos:station:SCCF:13:1,2019-03-22T04:00:00Z,26.5255,-82.0032,2.35,7.35,1111122 
SCCF RECON,ioos:station:SCCF:13:1,2019-03-22T05:00:00Z,26.5255,-82.0032,2.441,7.59,1111122 
SCCF RECON,ioos:station:SCCF:13:1,2019-03-22T06:00:00Z,26.5255,-82.0032,2.5,7.56,1111122 
SCCF RECON,ioos:station:SCCF:13:1,2019-03-22T07:00:00Z,26.5255,-82.0032,2.53,7.46,1111122 
SCCF RECON,ioos:station:SCCF:13:1,2019-03-22T08:00:00Z,26.5255,-82.0032,2.5,7.54,1111122 
SCCF RECON,ioos:station:SCCF:13:1,2019-03-22T09:00:00Z,26.5255,-82.0032,2.38,7.49,1111122 
SCCF RECON,ioos:station:SCCF:13:1,2019-03-22T10:00:00Z,26.5255,-82.0032,2.26,7.34,1111122 
SCCF RECON,ioos:station:SCCF:13:1,2019-03-22T11:00:00Z,26.5255,-82.0032,2.19,7.17,1111122 
SCCF RECON,ioos:station:SCCF:13:1,2019-03-22T12:00:00Z,26.5255,-82.0032,2.121,7.37,1111122 
SCCF RECON,ioos:station:SCCF:13:1,2019-03-22T13:00:00Z,26.5255,-82.0032,2.06,7.37,1111122 
SCCF RECON,ioos:station:SCCF:13:1,2019-03-22T14:00:00Z,26.5255,-82.0032,2.044,7.66,1111122 
SCCF RECON,ioos:station:SCCF:13:1,2019-03-22T15:00:00Z,26.5255,-82.0032,2.168,7.75,1111122 
SCCF RECON,ioos:station:SCCF:13:1,2019-03-22T16:00:00Z,26.5255,-82.0032,2.33,7.98,1111122 
SCCF RECON,ioos:station:SCCF:13:1,2019-03-22T17:00:00Z,26.5255,-82.0032,2.411,7.61,1111122 
SCCF RECON,ioos:station:SCCF:13:1,2019-03-22T18:00:00Z,26.5255,-82.0032,2.477,7.73,1111122 
SCCF RECON,ioos:station:SCCF:13:1,2019-03-22T19:00:00Z,26.5255,-82.0032,2.522,8.23,1111122 
SCCF RECON,ioos:station:SCCF:13:1,2019-03-22T20:00:00Z,26.5255,-82.0032,2.517,8.13,1111122 
SCCF RECON,ioos:station:SCCF:13:1,2019-03-22T21:00:00Z,26.5255,-82.0032,2.411,8.06,1111122 
SCCF RECON,ioos:station:SCCF:13:1,2019-03-22T22:00:00Z,26.5255,-82.0032,2.29,8.17,1111122 
SCCF RECON,ioos:station:SCCF:13:1,2019-03-22T23:00:00Z,26.5255,-82.0032,2.205,8.18,1111122 
SCCF RECON,ioos:station:SCCF:13:1,2019-03-23T04:00:00Z,26.5255,-82.0032,2.23,8.09,1111122 
SCCF RECON,ioos:station:SCCF:13:1,2019-03-23T05:00:00Z,26.5255,-82.0032,2.35,7.77,1111122 
SCCF RECON,ioos:station:SCCF:13:1,2019-03-23T06:00:00Z,26.5255,-82.0032,2.43,7.72,1111122 
SCCF RECON,ioos:station:SCCF:13:1,2019-03-23T07:00:00Z,26.5255,-82.0032,2.508,7.83,1111122 
SCCF RECON,ioos:station:SCCF:13:1,2019-03-23T08:00:00Z,26.5255,-82.0032,2.55,7.79,1111122 
SCCF RECON,ioos:station:SCCF:13:1,2019-03-23T09:00:00Z,26.5255,-82.0032,2.54,7.76,1111122 
SCCF RECON,ioos:station:SCCF:13:1,2019-03-23T10:00:00Z,26.5255,-82.0032,2.45,7.74,1111122 
SCCF RECON,ioos:station:SCCF:13:1,2019-03-23T11:00:00Z,26.5255,-82.0032,2.35,7.65,1111122 
SCCF RECON,ioos:station:SCCF:13:1,2019-03-23T12:00:00Z,26.5255,-82.0032,2.281,7.49,1111122 
SCCF RECON,ioos:station:SCCF:13:1,2019-03-23T13:00:00Z,26.5255,-82.0032,2.23,7.67,1111122 
SCCF RECON,ioos:station:SCCF:13:1,2019-03-23T14:00:00Z,26.5255,-82.0032,2.199,7.75,1111122 
SCCF RECON,ioos:station:SCCF:13:1,2019-03-23T15:00:00Z,26.5255,-82.0032,2.26,7.97,1111122 
SCCF RECON,ioos:station:SCCF:13:1,2019-03-23T16:00:00Z,26.5255,-82.0032,2.416,7.96,1111122 
SCCF RECON,ioos:station:SCCF:13:1,2019-03-23T17:00:00Z,26.5255,-82.0032,2.531,7.91,1111122 
SCCF RECON,ioos:station:SCCF:13:1,2019-03-23T18:00:00Z,26.5255,-82.0032,2.597,7.96,1111122 
SCCF RECON,ioos:station:SCCF:13:1,2019-03-23T19:00:00Z,26.5255,-82.0032,2.648,8.62,1111122 
SCCF RECON,ioos:station:SCCF:13:1,2019-03-23T20:00:00Z,26.5255,-82.0032,2.663,8.3,1111122 
SCCF RECON,ioos:station:SCCF:13:1,2019-03-23T21:00:00Z,26.5255,-82.0032,2.64,8.32,1111122 
SCCF RECON,ioos:station:SCCF:13:1,2019-03-23T22:00:00Z,26.5255,-82.0032,2.54,8.4,1111122 
SCCF RECON,ioos:station:SCCF:13:1,2019-03-23T23:00:00Z,26.5255,-82.0032,2.43,8.37,1111122 
SCCF RECON,ioos:station:SCCF:13:1,2019-03-24T04:00:00Z,26.5255,-82.0032,2.163,8.09,1111122 
SCCF RECON,ioos:station:SCCF:13:1,2019-03-24T05:00:00Z,26.5255,-82.0032,2.32,8.09,1111122 
SCCF RECON,ioos:station:SCCF:13:1,2019-03-24T06:00:00Z,26.5255,-82.0032,2.4,7.72,1111122 
SCCF RECON,ioos:station:SCCF:13:1,2019-03-24T07:00:00Z,26.5255,-82.0032,2.45,7.88,1111122 
SCCF RECON,ioos:station:SCCF:13:1,2019-03-24T08:00:00Z,26.5255,-82.0032,2.5,7.91,1111122 
SCCF RECON,ioos:station:SCCF:13:1,2019-03-24T09:00:00Z,26.5255,-82.0032,2.5,7.71,1111122 
SCCF RECON,ioos:station:SCCF:13:1,2019-03-24T10:00:00Z,26.5255,-82.0032,2.44,7.7,1111122 
SCCF RECON,ioos:station:SCCF:13:1,2019-03-24T11:00:00Z,26.5255,-82.0032,2.35,7.63,1111122 
SCCF RECON,ioos:station:SCCF:13:1,2019-03-24T12:00:00Z,26.5255,-82.0032,2.266,7.49,1111122 
SCCF RECON,ioos:station:SCCF:13:1,2019-03-24T13:00:00Z,26.5255,-82.0032,2.22,7.61,1111122 
SCCF RECON,ioos:station:SCCF:13:1,2019-03-24T14:00:00Z,26.5255,-82.0032,2.19,7.75,1111122 
SCCF RECON,ioos:station:SCCF:13:1,2019-03-24T15:00:00Z,26.5255,-82.0032,2.18,7.97,1111122 
SCCF RECON,ioos:station:SCCF:13:1,2019-03-24T16:00:00Z,26.5255,-82.0032,2.274,8.05,1111122 
SCCF RECON,ioos:station:SCCF:13:1,2019-03-24T17:00:00Z,26.5255,-82.0032,2.402,8.39,1111122 
SCCF RECON,ioos:station:SCCF:13:1,2019-03-24T18:00:00Z,26.5255,-82.0032,2.477,7.89,1111122 
SCCF RECON,ioos:station:SCCF:13:1,2019-03-24T19:00:00Z,26.5255,-82.0032,2.534,7.95,1111122 
SCCF RECON,ioos:station:SCCF:13:1,2019-03-24T20:00:00Z,26.5255,-82.0032,2.585,8.76,1111122 
SCCF RECON,ioos:station:SCCF:13:1,2019-03-24T21:00:00Z,26.5255,-82.0032,2.6,8.59,1111122 
SCCF RECON,ioos:station:SCCF:13:1,2019-03-24T22:00:00Z,26.5255,-82.0032,2.55,8.62,1111122 
SCCF RECON,ioos:station:SCCF:13:1,2019-03-24T23:00:00Z,26.5255,-82.0032,2.43,8.64,1111122 
SCCF RECON,ioos:station:SCCF:13:1,2019-03-25T04:00:00Z,26.5255,-82.0032,2.09,8.24,1111122 
SCCF RECON,ioos:station:SCCF:13:1,2019-03-25T05:00:00Z,26.5255,-82.0032,2.197,8.18,1111122 
SCCF RECON,ioos:station:SCCF:13:1,2019-03-25T06:00:00Z,26.5255,-82.0032,2.32,8.03,1111122 
SCCF RECON,ioos:station:SCCF:13:1,2019-03-25T07:00:00Z,26.5255,-82.0032,2.37,7.85,1111122 
SCCF RECON,ioos:station:SCCF:13:1,2019-03-25T08:00:00Z,26.5255,-82.0032,2.43,7.85,1111122 
SCCF RECON,ioos:station:SCCF:13:1,2019-03-25T09:00:00Z,26.5255,-82.0032,2.46,7.69,1111122 
SCCF RECON,ioos:station:SCCF:13:1,2019-03-25T10:00:00Z,26.5255,-82.0032,2.49,7.73,1111122 
SCCF RECON,ioos:station:SCCF:13:1,2019-03-25T11:00:00Z,26.5255,-82.0032,2.5,7.72,1111122 
SCCF RECON,ioos:station:SCCF:13:1,2019-03-25T12:00:00Z,26.5255,-82.0032,2.46,7.59,1111122 
SCCF RECON,ioos:station:SCCF:13:1,2019-03-25T13:00:00Z,26.5255,-82.0032,2.41,7.62,1111122 
SCCF RECON,ioos:station:SCCF:13:1,2019-03-25T14:00:00Z,26.5255,-82.0032,2.371,7.62,1111122 
SCCF RECON,ioos:station:SCCF:13:1,2019-03-25T15:00:00Z,26.5255,-82.0032,2.36,7.69,1111122 
SCCF RECON,ioos:station:SCCF:13:1,2019-03-25T16:00:00Z,26.5255,-82.0032,2.39,7.78,1111122 
SCCF RECON,ioos:station:SCCF:13:1,2019-03-25T17:00:00Z,26.5255,-82.0032,2.47,7.8,1111122 
SCCF RECON,ioos:station:SCCF:13:1,2019-03-25T18:00:00Z,26.5255,-82.0032,2.557,8.47,1111122 
SCCF RECON,ioos:station:SCCF:13:1,2019-03-25T19:00:00Z,26.5255,-82.0032,2.628,8.54,1111122 
SCCF RECON,ioos:station:SCCF:13:1,2019-03-25T20:00:00Z,26.5255,-82.0032,2.652,8.34,1111122 